{"data":{"norad_id":69190,"epoch":"2026-09-19T23:23:03.001056Z","epoch_age_seconds":72384,"freshness":"FRESH","line1":"1 69190U 26114J   26262.97434029  .00009201  00000+0  28307-3 0  9999","line2":"2 69190  53.1574 116.3103 0001375  85.2422 274.8737 15.34404360 19363","mean_motion":15.3440436,"eccentricity":0.0001375,"inclination_deg":53.1574,"raan_deg":116.3103,"arg_perigee_deg":85.2422,"mean_anomaly_deg":274.8737,"bstar":0.00028307,"rev_number":1936,"period_min":93.847491413541,"perigee_km":461.74966764777,"apogee_km":463.63089515015,"semimajor_km":6840.827281399,"source":"CELESTRAK","updated_at":"2026-09-20T09:00:44.097235Z"}}